sat.trackr.live / text

‹ back to catalog

TIANMU-1 22

NORAD 58663 · 2023-208D

PAYLOAD ACTIVE UNKNOWN

§ Identity

Operator
Country
PRC
Launch date
2023-12-27
Launch site
JSC
Launch vehicle
Mass (kg)
RCS (m²)

Purposes: earth_obs

External: N2YO · Heavens-Above · Gunter

§ Orbital elements

Epoch: 2026-05-25T04:41:19.510944Z

Period
94.08 min
Inclination
97.4470°
Eccentricity
0.0005027
Mean motion
15.30679468 rev/d
Perigee alt
470.3 km
Apogee alt
477.2 km
Semi-major
6,851.9 km
B*
2.5734e-4
RAAN
261.3430°
Arg perigee
74.5053°
Mean anomaly
285.6742°
Rev number
13,381

§ Raw data

TIANMU-1 221 58663U 23208D   26145.19536471  .00007557  00000+0  25734-3 0  99942 58663  97.4470 261.3430 0005027  74.5053 285.6742 15.30679468133817

JSON: /api/v1/satellites/58663 · /tle

For live sub-satellite position, see the globe view (requires WebGL).

§ Visibility from observer

Set your observer location to see the next 7 days of passes ≥ 10°. The values pass through the URL so the page stays shareable.

No JS? Fill the form by hand. The geolocation button needs JavaScript.